EHI
0 0 0 0 0 0 0 0 0 0 0 0 0 0 0 0 0 0 0 0 0 0 0 0 0 0 0 0 0 0 0 0 0 0 0 0 0 0
0 0 0 0 0 0 0 0 0 0 0 0 0 0 0 0 0 0 0 0 0 0 0 0 0 0 0 0 0 0 0 0 0 0 0 0 0 0
0 0 0 0 0 0 0 0 0 0 0 0 0 0 0 0 0 0 0 0 0 0 0 0 0 0 0 0 0 0 0 0 0 0 0 0 0 0
0 0 0 0 0 0 0 0 0 0 0 0 0 0 0 0 0 0 0 0 0 0 0 0 0 0 0 0 0 0 0 0 0 0 0 0 0 0
0 0 0 0 0 0 0 0 0 0 0 0 0 0 0 0 0 0 0 0 0 0 0 0 0 0 0 0 0 0 0 0 0 0 0 0 0 0
0 0 0 0 0 0 0 0 0 0 0 0 0 0 0 0 0 0 0 0 0 0 0 0 0 0 0 0 0 0 0 0 0 0 0 0 0 0
0 0 0 0 0 0 0 0 0 0 0 0 0 0 0 0 0 0 0 0 0 0 0 0 0 0 0 0 0 0 0 0 0 0 0 0 0 0
0 0 0 0 0 0 0 0 0 0 0 0 0 0 0 0 0 0 0 0 0 0 0 0 0 0 0 0 0 0 0 0 0 0 0 0 0 0
0 0 0 0 0 0 0 0 0 0 0 0 0 0 0 0 0 0 0 0 0 0 0 0 0 0 0 0 0 0 0 0 0 0 0 0 0 0
0 0 0 0 0 0 0 0 0 0 0 0 0 0 0 0 0 0 0 0 0 0 0 0 0 0 0 0 0 0 0 0 0 0 0 0 0 0
0 0 0 0 0 0 0 0 0 0 0 0 0 0 0 0 0 0 0 0 0 0 0 0 0 0 0 0 0 0 0 0 0 0 0 0 0 0
0 0 0 0 0 0 0 0 0 0 0 0 0 0 0 0 0 0 0 0 0 0 0 0 0 0 0 0 0 0 0 0 0 0 0 0 0 0
0 0 0 0 0 0 0 0 0 0 0 0 0 0 0 0 0 0 0 0 0 0 0 0 0 0 0 0 0 0 0 0 0 0 0 0 0 0
0 0 0 0 0 0 0 0 0 0 0 0 0 0 0 0 0 0 0 0 0 0 0 0 0 0 0 0 0 0 0 0 0 0 0 0 0 0
0 0 0 0 0 0 0 0 0 0 0 0 0 0 0 0 0 0 0 0 0 0 0 0 0 0 0 0 0 0 0 0 0 0 0 0 0 0
0 0 0 0 0 0 0 0 0 0 0 0 0 0 0 0 0 0 0 0 0 0 0 0 0 0 0 0 0 0 0 0 0 0 0 0 0 0
0 0 0 0 0 0 0 0 0 0 0 0 0 0 0 0 0 0 0 0 0 0 0 0 0 0 0 0 0 0 0 0 0 0 0 0 0 0
0 0 0 0 0 0 0 0 0 0 0 0 0 0 0 0 0 0 0 0 0 0 0 0 0 0 0 0 0 0 0 0 0 0 0 0 0 0
0 0 0 0 0 0 0 0 0 0 0 0 0 0 0 0 0 0 0 0 0 0 0 0 0 0 0 0 0 0 0 0 0 0 0 0 0 0
0 0 0 0 0 0 0 0 0 0 0 0 0 0 0 0 0 0 0 0 0 0 0 0 0 0 0 0 0 0 0 0 0 0 0 0 0 0
0 0 0 0 0 0 0 0 0 0 0 0 0 0 0 0 0 0 0 0 0 0 0 0 0 0 0 0 0 0 0 0 0 0 0 0 0 0
0 0 0 0 0 0 0 0 0 0 0 0 0 0 0 0 0 0 0 0 0 0 0 0 0 0 0 0 0 0 0 0 0 0 0 0 0 0
0 0 0 0 0 0 0 0 0 0 0 0 0 0 0 0 0 0 0 0 0 0 0 0 0 0 0 0 0 0 0 0 0 0 0 0 0 0
Wind_Speed
4 4 3 2 2 2 2 3 4 3 3 2 2 2 3 3 2 1 2 3 4 5 6 6 7 7 8 8 8 8 9 10 10 10 9 6 5 6
4 5 4 3 3 2 2 1 2 3 2 1 2 2 3 3 3 2 2 3 3 4 5 5 5 6 7 8 7 8 9 9 10 11 9 6 5 5
5 5 5 4 3 3 2 2 2 2 3 1 1 2 2 3 2 2 1 1 1 4 4 4 4 5 6 7 7 8 9 9 10 11 10 7 4 3
6 6 5 4 5 4 3 3 2 2 3 3 1 1 1 2 2 1 1 1 1 2 2 3 3 4 5 6 7 8 9 9 10 10 9 7 5 2
6 6 5 6 5 3 4 3 2 2 2 2 2 1 1 1 2 1 1 0 0 1 1 1 2 3 4 5 6 8 9 9 10 9 8 7 6 4
4 5 5 6 6 6 4 4 4 3 2 2 2 2 2 1 2 2 2 1 1 0 0 0 1 2 3 4 6 7 8 8 9 8 7 7 7 6
4 4 4 5 6 6 5 5 5 4 3 3 3 2 2 2 3 2 2 2 1 1 0 0 0 1 1 3 4 5 6 7 8 8 8 8 7 7
5 4 4 5 6 7 7 7 6 5 5 4 3 4 4 4 3 3 2 2 2 2 2 1 1 1 0 1 3 4 6 6 7 8 9 9 9 9
5 5 4 5 6 5 6 6 5 5 5 4 4 4 4 4 4 3 3 3 3 2 2 1 1 1 1 1 2 3 4 5 5 6 8 9 10 10
5 6 6 6 6 7 5 5 4 3 4 3 3 2 2 3 5 5 4 3 2 1 2 2 2 1 1 0 0 1 3 3 4 4 6 7 8 9
5 6 7 6 11 12 7 6 5 3 4 4 4 4 4 5 5 4 4 3 2 2 2 2 2 1 1 1 1 0 0 2 3 3 4 5 6 7
5 6 10 10 13 14 8 7 6 5 5 4 3 3 2 3 5 4 5 4 2 2 3 2 2 2 0 1 1 0 1 0 2 2 3 4 4 3
5 5 6 13 14 15 12 7 9 7 6 5 4 3 2 2 2 2 3 3 3 2 3 3 2 2 2 1 1 1 1 0 0 1 2 2 2 2
6 5 7 14 14 15 11 10 12 9 5 4 4 3 3 3 3 3 3 3 3 3 3 4 3 3 3 2 1 1 0 0 1 1 0 1 1 1
5 9 11 14 14 11 13 14 11 6 5 4 5 4 4 4 4 3 3 3 3 2 2 2 3 3 3 3 2 1 1 1 1 1 1 0 1 0
6 9 13 14 10 10 10 8 6 6 6 5 4 4 4 4 4 3 3 3 2 1 1 1 2 3 2 2 2 2 2 2 1 1 1 1 1 2
5 4 4 5 6 6 5 5 5 6 6 5 5 4 5 4 4 3 3 3 3 3 3 1 1 1 2 2 2 3 3 2 2 2 2 1 3 3
8 5 7 7 8 8 8 7 7 7 6 6 5 6 6 5 5 4 3 4 4 3 3 3 3 1 1 3 7 4 3 3 2 3 2 2 3 3
8 6 7 7 7 7 7 7 7 7 7 6 6 6 6 5 5 5 5 4 4 4 4 4 4 4 3 3 3 8 4 3 3 2 3 3 3 3
6 6 7 7 7 7 7 7 6 7 7 7 6 7 7 6 6 6 6 6 5 4 4 4 5 6 6 4 2 3 8 4 3 3 2 3 3 6
6 6 6 6 6 7 7 7 7 7 7 7 7 7 7 7 7 7 7 10 8 6 7 7 6 8 3 2 1 2 3 8 6 4 3 2 2 2
5 5 6 6 6 6 6 6 7 7 8 8 7 7 7 7 8 8 8 7 7 7 6 4 4 5 4 5 4 3 2 3 7 10 8 7 4 4
4 4 5 6 6 6 6 7 8 7 7 7 7 7 8 8 7 7 7 7 6 6 5 5 5 4 5 5 4 4 4 4 3 3 5 11 15 14
Wind_Direction
181 181 180 171 163 159 158 160 167 199 232 183 140 130 122 109 93 61 73 64 67 65 61 55 42 33 25 17 10 6 2 356 348 338 326 296 271 261
174 175 177 168 154 147 154 153 155 171 207 174 137 137 124 121 110 82 81 90 90 90 73 60 49 39 28 20 17 14 8 360 354 350 338 317 275 262
177 179 178 160 155 155 148 155 169 166 203 220 94 114 126 131 116 92 75 70 105 99 85 72 61 46 32 24 19 15 11 6 360 354 348 341 310 267
184 175 174 162 161 159 157 169 182 179 182 204 174 144 139 141 135 132 99 75 98 118 103 87 71 52 35 29 23 17 13 9 3 360 356 353 356 1
177 174 173 166 172 167 166 172 177 174 171 179 177 148 139 134 128 136 168 324 288 143 128 93 70 55 37 35 28 19 14 10 6 6 8 16 22 29
164 167 172 175 178 173 174 177 171 172 174 185 184 175 173 159 159 186 207 205 218 178 185 167 102 67 50 42 34 21 15 12 10 12 18 28 32 42
156 158 163 163 167 172 174 176 172 176 181 192 193 180 186 182 201 190 195 183 209 186 177 255 87 37 23 25 33 22 18 19 20 26 33 39 44 52
168 163 156 156 169 174 171 172 172 179 187 187 191 198 205 199 180 178 165 160 226 209 165 223 159 144 75 49 30 29 27 29 32 38 43 48 52 57
173 171 173 179 173 168 175 174 178 188 185 177 190 203 197 188 169 174 181 183 203 179 143 205 182 178 182 83 54 36 35 37 44 50 53 54 56 59
181 180 181 178 180 172 171 172 177 182 183 180 181 186 173 166 167 172 172 143 95 119 139 178 192 182 147 99 97 60 45 47 56 64 63 62 61 62
192 189 185 185 193 188 177 174 176 186 176 156 148 151 148 152 151 132 140 143 176 216 188 162 166 142 140 191 230 189 78 68 69 77 80 74 68 61
198 200 201 196 198 193 181 178 188 193 170 161 160 162 157 165 159 158 164 162 159 196 197 156 149 127 160 270 213 275 342 76 84 76 84 80 70 64
201 202 205 205 203 200 194 189 199 181 167 167 172 175 162 153 143 131 146 157 159 185 178 142 142 145 155 206 264 233 178 160 45 38 44 65 70 82
206 202 202 204 205 204 203 201 199 180 158 166 174 180 177 175 161 132 110 100 113 150 150 132 146 160 149 161 226 242 279 186 140 130 63 0 8 349
209 203 201 202 203 205 208 205 196 175 166 179 188 191 182 166 143 123 103 96 82 79 101 119 144 152 151 170 185 180 203 248 182 155 164 195 240 268
217 209 203 201 196 196 200 204 186 177 179 185 184 175 155 149 153 151 150 153 141 138 96 114 142 150 160 182 176 198 194 206 198 190 195 235 250 231
200 188 188 185 191 190 190 187 181 182 193 177 174 170 167 166 171 164 157 161 171 170 170 168 150 130 162 170 195 213 207 209 202 186 179 243 255 241
212 202 201 198 198 197 195 192 190 191 191 182 178 177 177 177 176 169 167 173 186 186 175 165 148 121 355 265 216 210 204 206 196 182 175 213 266 253
222 208 206 202 200 197 196 194 194 190 184 184 184 182 177 176 175 178 181 184 195 195 183 165 161 159 173 239 244 201 187 185 171 182 199 208 238 262
216 209 209 205 199 196 197 196 190 182 184 188 187 186 183 181 184 187 189 193 195 193 190 183 186 188 189 195 217 217 202 187 178 194 211 219 248 267
219 213 207 200 197 196 195 193 189 188 187 187 191 191 188 189 195 195 194 203 199 197 206 208 205 189 164 134 189 240 222 213 200 187 183 193 238 252
224 218 208 200 196 193 192 192 191 191 190 192 194 193 192 194 199 197 197 198 202 203 207 194 163 163 170 194 214 216 219 215 228 232 227 204 186 209
227 220 212 202 197 191 191 194 193 193 192 192 193 193 194 197 198 197 199 199 196 195 190 179 172 177 191 199 212 220 224 216 208 220 242 243 242 246